This is the latest recevied weather packets stored in our database for station/object DL7HMX-13. If no packets are shown the sender has not sent any weather packets the latest 10 day(s).
| Time | Temp. | Humidity | Pressure | Rain* | Wind** | Luminosity | Snow |
|---|---|---|---|---|---|---|---|
| 1777767617 | 7.22° C | 83% | 1017.6 hPa | 0 mm | - | 0 W/m² | - |
| 1777767020 | 7.78° C | 82% | 1017.6 hPa | 0 mm | - | 0 W/m² | - |
| 1777766423 | 7.78° C | 81% | 1017.7 hPa | 0 mm | - | 0 W/m² | - |
| 1777765826 | 7.22° C | 81% | 1017.7 hPa | 0 mm | - | 0 W/m² | - |
| 1777765230 | 7.22° C | 81% | 1017.8 hPa | 0 mm | - | 0 W/m² | - |
| 1777764616 | 7.22° C | 81% | 1017.8 hPa | 0 mm | - | 0 W/m² | - |
| 1777764017 | 7.78° C | 81% | 1017.9 hPa | 0 mm | - | 0 W/m² | - |
| 1777763420 | 7.78° C | 81% | 1017.9 hPa | 0 mm | - | 0 W/m² | - |
| 1777762822 | 8.33° C | 78% | 1018 hPa | 0 mm | - | 0 W/m² | - |
| 1777762225 | 8.89° C | 76% | 1018 hPa | 0 mm | - | 0 W/m² | - |
| 1777761628 | 8.89° C | 75% | 1018 hPa | 0 mm | - | 0 W/m² | - |
| 1777761030 | 9.44° C | 74% | 1018 hPa | 0 mm | - | 0 W/m² | - |
| 1777760417 | 9.44° C | 74% | 1018.1 hPa | 0 mm | - | 0 W/m² | - |
| 1777759821 | 10° C | 74% | 1018.1 hPa | 0 mm | - | 0 W/m² | - |
| 1777759225 | 10° C | 72% | 1018.1 hPa | 0 mm | - | 0 W/m² | - |
| 1777758627 | 10° C | 70% | 1018.1 hPa | 0 mm | - | 0 W/m² | - |
| 1777758030 | 9.44° C | 66% | 1018.1 hPa | 0 mm | - | 0 W/m² | - |
| 1777757416 | 10.56° C | 64% | 1018.1 hPa | 0 mm | - | 0 W/m² | - |
| 1777756820 | 11.11° C | 63% | 1018.2 hPa | 0 mm | - | 0 W/m² | - |
| 1777756222 | 11.11° C | 64% | 1018.3 hPa | 0 mm | - | 0 W/m² | - |
| 1777755625 | 11.67° C | 63% | 1018.3 hPa | 0 mm | - | 0 W/m² | - |
| 1777755028 | 11.67° C | 63% | 1018.3 hPa | 0 mm | - | 0 W/m² | - |
| 1777754430 | 11.67° C | 62% | 1018.3 hPa | 0 mm | - | 0 W/m² | - |
| 1777753817 | 12.22° C | 60% | 1018.4 hPa | 0 mm | - | 0 W/m² | - |
| 1777753221 | 12.78° C | 55% | 1018.4 hPa | 0 mm | - | 0 W/m² | - |
* Rain latest hour (hover to see other rain measurements)
** Current wind speed in m/s (hover to see current wind gust speed)